Other Public Products
Issued by NWS Grand Forks, ND

Home | Current Version | Previous Version | Text Only | Print | Product List | Glossary Off
Versions: 1 2 3 4 5 6 7 8 9 10 11 12 13 14 15 16 17 18 19 20 21 22 23 24 25 26 27 28 29 30 31 32 33 34 35 36 37 38 39 40 41 42 43 44 45 46 47 48 49 50

000
FPUS83 KFGF 180710
OPUFGF
PRAIRIE TO PINES WEATHER ROUNDUP
NATIONAL WEATHER SERVICE EASTERN NORTH DAKOTA/GRAND FORKS ND
200 AM CDT WED OCT 18 2017

 **SATELLITE DATA USED TO AUGMENT SKY COVER AT AUTOMATED STATIONS**
 *****  WEATHER ACROSS EASTERN NORTH DAKOTA  *****

CITY           SKY/WX    TMP DP  RH WIND       PRES   REMARKS
GRAND FORKS    FAIR      54  38  54 S13       29.56S
GRAND FORKS AF FAIR      60  34  37 SW12      29.56S
GRAND CITY NWS NOT AVBL
BUXTON           N/A     52  41  68 S8          N/A
DEVILS LAKE    FAIR      59  40  49 SW17      29.53F
FARGO          FAIR      55  42  61 S10       29.63F
WAHPETON ARPT  NOT AVBL
$$

 *****  WEATHER ACROSS CENTRAL AND WESTERN NORTH DAKOTA  *****

CITY           SKY/WX    TMP DP  RH WIND       PRES   REMARKS
JAMESTOWN      FAIR      52  37  56 S8        29.61S
BISMARCK       FAIR      58  28  32 SW5       29.61S
MINOT          FAIR      66  25  21 SW18G26   29.48S
MINOT AFB      FAIR      64  26  24 W20       29.47R
GARRISON         N/A     60  29  30 W14       29.55R
WILLISTON      LGT RAIN  59  34  39 NW35G45   29.64R
DICKINSON      FAIR      60  22  23 SW20      29.62R
HETTINGER      FAIR      53  26  35 NW3       29.69R
$$

 *****  OTHER OBSERVATIONS NORTHEAST NORTH DAKOTA  *****

CITY           SKY/WX    TMP DP  RH WIND       PRES   REMARKS
WALHALLA       FAIR     N/A N/A N/A SW17G26   29.45F
LANGDON        FAIR      52  30  43 S17G23    29.50F
CAVALIER       FAIR      61  32  33 SW14G20   29.48F
GRAFTON        FAIR      52  36  54 S8        29.54S
CANDO          FAIR      61  27  27 S14G20    29.49F
FORT TOTTEN      N/A     62  33  33 SW14      29.95S
ROLLA          FAIR      55  27  33 SW16      29.45F
RUGBY          FAIR      61  27  27 SW18G26   29.46F
 ***** THE ABOVE OBSERVATIONS ARE NON NWS ARE NOT QUALITY
        CONTROLLED AND MAY MIS-REPORT RAIN FOR SNOW...
$$

 *****  OTHER OBSERVATIONS SOUTHEAST NORTH DAKOTA *****

CITY           SKY/WX    TMP DP  RH WIND       PRES   REMARKS
COOPERSTOWN    FAIR      54  37  54 S10       29.61S
VALLEY CITY    FAIR      54  41  62 S13       29.64S
OAKES          NOT AVBL
GWINNER        SUNNY     52  41  66 S9        29.65F
SHEYENNE NWR     N/A     55  40  58 S9        29.95S
BUFFALO          N/A     43  36  75 SW13        N/A
WYNDMERE       NOT AVBL
 ***** THE ABOVE OBSERVATIONS ARE NON NWS ARE NOT QUALITY
       CONTROLLED AND MAY MIS-REPORT RAIN FOR SNOW...
$$

  *****  WEATHER ACROSS NORTHERN MINNESOTA  *****

CITY           SKY/WX    TMP DP  RH WIND       PRES   REMARKS
FLAG ISLAND    FAIR      55  43  62 S13       29.52S
WARROAD        FAIR      63  41  45 SW16G23   29.55S
ROSEAU         FAIR      57  43  58 S14       29.55S
HALLOCK        FAIR      52  36  54 S12       29.51S
THF RVR FALLS  FAIR      59  40  49 S18G24    29.61F
HALSTAD        NOT AVBL
FOSSTON        FAIR      55  39  54 S14       29.66S
BAUDETTE       FAIR      58  40  51 S14G22    29.59F
WASKISH        FAIR      61  39  44 S8        29.64F
CROOKSTON      FAIR      55  39  54 S16       29.60F
$$
  *****  WEATHER ACROSS CENTRAL AND WEST MINNESOTA  *****

CITY           SKY/WX    TMP DP  RH WIND       PRES   REMARKS
BEMIDJI        FAIR      55  39  56 S8        29.68F
PARK RAPIDS    FAIR      50  39  66 SE7       29.72F
WADENA         FAIR      55  39  54 S8        29.74S
DETROIT LAKES  FAIR      61  39  44 S13G18    29.71F
MOORHEAD       FAIR      54  43  66 S15       29.66F
FERGUS FALLS   FAIR      54  41  62 S12       29.73F
ELBOW LAKE     FAIR      52  41  68 S12       29.74F
MORRIS MN      FAIR      46  43  87 S9        29.75F
STAPLES        FAIR      54  39  58 S10       29.76S
WHEATON        FAIR      55  39  54 S12       29.73F
$$
  *****  WEATHER ELSEWHERE ACROSS MINNESOTA  *****

CITY           SKY/WX    TMP DP  RH WIND       PRES   REMARKS
DULUTH         FAIR      54  41  61 SW14      29.80F
INTRNTL FALLS  FAIR      57  38  48 S8        29.64F
ELY            FAIR      55  37  50 SW6       29.75F
CLOQUET        FAIR      52  37  58 S6        29.80F
BRAINERD       FAIR      56  38  50 S12       29.78F
HIBBING        FAIR      40  37  89 CALM      29.76S
ALEXANDRIA     FAIR      57  41  55 S14       29.79S
SAINT CLOUD    FAIR      52  42  69 S9        29.82F
MINNEAPOLIS    FAIR      59  46  62 S9        29.88F
$$

  *****  WEATHER ACROSS SOUTH DAKOTA  *****

CITY           SKY/WX    TMP DP  RH WIND       PRES   REMARKS
SIOUX FALLS    FAIR      56  46  69 S10       29.84F
BROOKINGS      FAIR      53  44  71 S13       29.82F
WATERTOWN      FAIR      49  42  77 SE8       29.77F
HURON          FAIR      52  40  63 S10       29.74F
SISSETON         N/A     64  39  39 SW18      29.69F
ABERDEEN       FAIR      50  41  71 S12       29.69F
MITCHELL       FAIR      55  42  61 S13       29.78F
PIERRE         FAIR      52  31  44 SW7       29.69F
MOBRIDGE       FAIR      49  44  83 SE7       29.64F
RAPID CITY     FAIR      51  23  33 SE6       29.74F
$$

  *****  SOME WEATHER IN NEARBY STATES *****

CITY           SKY/WX    TMP DP  RH WIND       PRES   REMARKS
GLASGOW MT     FAIR      49  35  58 NW26G38   29.74R
GREAT FALLS MT FAIR      55  28  35 W15       29.88R
CHEYENNE WY    FAIR      60  11  14 W24G30    30.07F
SCOTTSBLUFF NE FAIR      44  26  49 N5        29.94F
OMAHA NE       FAIR      52  45  77 SE12      29.96F
DES MOINES IA  FAIR      55  46  71 S12       30.01F
DAVENPORT IA   FAIR      52  41  66 S8        30.11F
CHICAGO IL     FAIR      54  40  59 SW10      30.14S
EAU CLAIRE WI  FAIR      48  45  89 S5        29.93S
LA CROSSE WI   FAIR      58  46  64 S8        29.99S
$$

  *****  SOME NATIONAL WEATHER *****

CITY           SKY/WX    TMP DP  RH WIND       PRES   REMARKS
LA GUARDIA NY  FAIR      54  36  50 W9        30.28S
RALEIGH NC     FAIR      41  40  96 CALM      30.34R
ATLANTA GA     FAIR      52  44  74 E9        30.28F
NEW ORLEANS LA FAIR      68  60  75 E8        30.15F
OKLAHOMA CITY  FAIR      50  44  80 S7        30.10F
ALBUQUERQUE NM FAIR      55  27  34 NE8       30.22S
SALT LAKE CITY FAIR      48  36  63 SE6       30.16S
LOS ANGELES CA FAIR      70  57  63 SE3       29.93S
BOISE ID       FAIR      44  31  60 SE5       30.12S
SEATTLE WA     MOCLDY    50  43  77 S9        30.09F
$$

*** WEATHER ACROSS MANITOBA...SASKATCHEWAN AND ONTARIO ***
                ***ONTARIO***

CITY           SKY/WX    TMP DP  RH WIND       PRES   REMARKS
GERALDTON      CLEAR     45  37  76 S6        29.82F
THUNDER BAY    CLEAR     37  37 100 E2        29.79F
SIOUX LOOKOUT  CLEAR     54  39  58 S8        29.58F
TORONTO        CLEAR     52  43  71 W2        30.16R
BIG TROUT LK   PTCLDY    39  32  75 SE16G25   29.58F
PICKLE LAKE    NOT AVBL
DRYDEN         CLEAR     55  39  54 S13G21    29.56F
KENORA         CLEAR     57  41  54 SW16G23   29.51F
$$
                *** MANITOBA***

CITY           SKY/WX    TMP DP  RH WIND       PRES   REMARKS
BRANDON        PTCLDY    63  28  27 SW26G37   29.32S
DAUPHIN        CLEAR     66  27  22 W31G39    29.17S
ISLAND LAKE    PTCLDY    45  37  76 SE16G25   29.25F
PILOT MOUND      N/A     54  28  37 S17         N/A
THE PAS        PTCLDY    50  36  57 SE14      28.82F
THOMPSON       CLOUDY    37  32  81 E15G28    29.09F
WINNIPEG       PTCLDY    54  34  47 S17       29.38F
LYNN LAKE      CLOUDY    34  34 100 E16G25    28.98F WCI  23
CHURCHILL      CLOUDY    28  27  93 SE16      29.60F WCI  17
GILLAM         FRZ RAIN  32  30  93 E12G23    29.36F WCI  23
$$
                ***SASKATCHEWAN***

CITY           SKY/WX    TMP DP  RH WIND       PRES   REMARKS
ESTEVAN        PTCLDY    55  34  44 W24G37    29.52R
KINDERSLEY     PTCLDY    39  27  60 W33G43    29.60R
LLOYDMINSTER   CLOUDY    37  28  70 W35G46    29.45R
PRINCE ALBERT  LGT RAIN  41  39  93 W28G45    29.08R
REGINA         PTCLDY    46  36  66 W25G38    29.46R
YORKTON        PTCLDY    52  37  58 W37G49    29.23R



USA.gov is the U.S. government's official web portal to all federal, state and local government web resources and services.